User: anonymous   Login
Location: Observatoire de Paris
(48.8363°N, 2.3365°E)
Time: 08:50:31
(UTC+01:00)
Language:

Altair - Orbit

View from above orbital plane
View from above orbital plane
View from above satellite
View from above satellite

Ground track
Ground track

The orbit data is extracted from the following two-line orbital elements,

1 00050U 60009B   21204.71848193 -.00000090  00000-0 -36536-4 0  9998
2 00050  47.2333 315.8791 0113439  81.7837 279.5799 12.20116335719210
Epoch (UTC): 23 July 2021 17:14:36
Eccentricity: 0.0113439
inclination: 47.2333°
perigee height: 1501 km
apogee height: 1682 km
right ascension of ascending node: 315.8791°
argument of perigee: 81.7837°
revolutions per day: 12.20116335
mean anomaly at epoch: 279.5799°
orbit number at epoch: 71921

The dashed part of the orbit path shows where the satellite is in the earth's shadow,  

DLR